Flag for U.S.A. Weather past 2 weeks in Lancaster, California, U.S.A.

Now
91 °F

Passing clouds.


Feels Like: 87 °F
Forecast: 78 / 96 °F
Wind: No wind

Location: Lancaster / Fox Field

Current Time: Jul 28, 2014 at 2:01:58 PM

Latest Report: Jul 28, 2014 at 12:56 PM


Visibility: 10 mi

Pressure: 30.04 "Hg

Humidity: 21%

Dew point: 46 °F

Location of LancasterLocation

Historic Weather in Lancaster — Graph

°F

Lancaster temperature yesterday

Maximum temperature yesterday: 98 °F (at 12:56 PM)
Minimum temperature yesterday: 79 °F (at 4:56 AM)
Average temperature yesterday: 87 °F

Past Weeks' High & Low Weather Summary

 TemperatureHumidityPressure
High105 °F (Jul 24, 2:56 PM)67% (Jul 20, 3:56 AM)30.07 "Hg (Jul 20, 3:56 AM)
Low62 °F (Jul 20, 3:56 AM)3% (Jul 24, 2:56 PM)29.75 "Hg (Jul 24, 5:56 PM)
Average82 °F31%29.92 "Hg
* Reported Jul 13 12:56 PM — Jul 28 12:56 PM, Lancaster, Weather by CustomWeather, © 2014

Note: Actual official high and low records may vary slightly from our data, if they occured in-between our weather recording intervals... More about our weather records

Advertising

Lancaster weather history for previous 24 hours

 ConditionsComfort  
Time TempWeatherWind HumidityBarometerVisibility
12:56 PM
Jul 28
91 °FPassing clouds.No wind21%30.04 "Hg10 mi
11:56 AM89 °FSunny.No wind19%30.06 "Hg10 mi
10:56 AM88 °FPartly sunny.3 mph16%30.07 "Hg10 mi
9:56 AM87 °FSunny.5 mph16%30.06 "Hg10 mi
8:56 AM81 °FSunny.3 mph20%30.07 "Hg10 mi
7:56 AM80 °FSunny.6 mph17%30.05 "Hg10 mi
6:56 AM77 °FClear.7 mph23%30.03 "Hg10 mi
5:56 AM77 °FClear.10 mph22%30.01 "Hg10 mi
4:56 AM78 °FClear.9 mph21%30.00 "Hg10 mi
3:56 AM76 °FClear.6 mph24%30.00 "Hg10 mi
2:56 AM77 °FClear.5 mph24%30.00 "Hg10 mi
1:56 AM81 °FClear.No wind21%29.99 "Hg10 mi
12:56 AM82 °FPassing clouds.3 mph19%29.98 "Hg10 mi
11:56 PM
Jul 27
83 °FClear.9 mph17%29.96 "Hg10 mi
10:56 PM82 °FClear.9 mph18%29.95 "Hg10 mi
9:56 PM82 °FClear.12 mph18%29.94 "Hg10 mi
8:56 PM83 °FSunny.15 mph22%29.93 "Hg10 mi
7:56 PM85 °FSunny.20 mph22%29.92 "Hg10 mi
6:56 PM89 °FSunny.22 mph22%29.90 "Hg10 mi
5:56 PM93 °FSunny.23 mph16%29.89 "Hg10 mi
4:56 PM93 °FSunny.24 mph18%29.90 "Hg10 mi
3:56 PM92 °FSunny.23 mph16%29.90 "Hg10 mi
2:56 PM95 °FSunny.26 mph15%29.92 "Hg10 mi
Weather by CustomWeather, © 2014

See weather overviewHow to use our weather pages